[[{"header":{"parameterUnit":"m.s-1","parameterCategory":1,"la1":30.2991,"la2":30.254,"lo1":-89.0895,"lo2":-89.0444,"dy":0.0017,"dx":0.0017,"nx":28,"ny":28,"refTime":"2025-08-28T09:00:00:Z","depth":0,"parameterNumber":2,"parameterNumberName":"U-component_of_WINDS"},"data":[0,0,0,0,0,0,0,0,0,0,0,0,0,0,0,0,0,0,0,0,0,0,0,0,0,0,0,0,0,0,0,0,0,0,0,0,0,0,0,0,0,0,0,0,0,0,0,0,0,0,0,0,0,0,0,0,0,0,3.079,3.079,0,3.0814,3.0814,3.0815,3.0761,3.076,3.0758,3.0756,3.078,3.0782,3.0785,0,0,0,0,0,0,0,0,0,0,0,0,0,3.0693,3.0695,3.079,3.079,3.079,3.0814,3.0814,3.0815,3.0762,3.076,3.0758,3.0756,3.078,3.0782,3.0785,0,0,0,0,0,0,0,0,0,0,0,0,0,3.0728,3.0696,3.079,3.0767,3.0765,3.0814,3.0814,3.0815,3.0762,3.076,3.0757,3.0755,3.0779,3.0782,3.0785,3.0857,0,0,3.0795,3.0797,0,0,0,0,0,0,0,0,3.0726,3.0732,3.077,3.0768,3.0766,3.0782,3.0789,3.0829,3.0763,3.0763,3.0756,3.0753,3.0783,3.0786,3.0796,3.0859,3.086,3.0796,3.0798,3.0799,3.08,0,0,0,0,0,0,0,3.0724,3.0731,3.0799,3.077,3.0768,3.0754,3.0756,3.0796,3.0787,3.0763,3.0759,3.0763,3.0781,3.0793,3.0796,3.086,3.0796,3.0799,3.0801,3.0802,3.0977,3.098,0,0,0,0,0,0,3.0725,3.0729,3.0799,3.08,3.074,3.0758,3.076,3.078,3.0787,3.0785,3.0765,3.076,3.0788,3.0792,3.0797,3.0877,3.0799,3.0802,3.0804,3.0975,3.0978,3.0981,0,0,0,0,0,0,3.0723,3.0732,3.0798,3.0763,3.0771,3.0762,3.0785,3.0782,3.0793,3.0788,3.0786,3.0778,3.0786,3.0792,3.0842,3.0878,3.0804,3.0807,3.0972,3.0976,3.0979,3.1042,0,0,0,0,0,0,3.072,3.0731,3.076,3.0764,3.0773,3.0843,3.0787,3.0784,3.0799,3.0793,3.08,3.0799,3.0785,3.0837,3.0845,3.0881,3.081,3.0968,3.0973,3.0978,3.1037,3.1048,3.1057,0,0,0,0,0,3.0717,3.0777,3.0762,3.077,3.0808,3.0846,3.085,3.0833,3.0802,3.0829,3.0826,3.0799,3.0873,3.0842,3.0851,3.0889,3.0966,3.0972,3.0978,3.1032,3.1045,3.1057,0,0,0,0,0,0,3.0778,3.0778,3.076,3.0824,3.0835,3.0837,3.0871,3.0849,3.0869,3.0862,3.084,3.0842,3.0895,3.0897,3.0863,3.0956,3.0914,3.0922,3.0952,3.0965,3.0975,3.0972,3.0812,0,0,0,0,0,3.0799,3.083,3.0828,3.0884,3.089,3.088,3.0896,3.0881,3.0892,3.0896,3.0896,3.0907,3.0932,3.0949,3.0973,3.1038,3.1036,3.1067,3.1078,3.1086,3.1092,3.1122,3.1134,3.1,3.1,3.1,0,0,3.0842,3.0846,3.0867,3.0896,3.0903,3.0933,3.0884,3.092,3.0941,3.0901,3.0947,3.0947,3.0958,3.1014,3.1039,3.1017,3.1129,3.1094,3.11,3.1102,3.1129,3.1142,3.1153,3.1004,3.1004,3.1003,0,0,3.0935,3.0943,3.0988,3.0995,3.1006,3.0998,3.1009,3.1013,3.1011,3.1057,3.1026,3.1052,3.1097,3.1104,3.1113,3.1206,3.118,3.1215,3.1267,3.1296,3.1306,3.1315,3.1344,3.1355,3.1221,3.1221,3.1222,0,3.0987,3.1033,3.1014,3.105,3.1062,3.1027,3.1071,3.1079,3.1097,3.1105,3.1082,3.1135,3.114,3.1194,3.1217,3.1227,3.1236,3.1212,3.1306,3.1315,3.1324,3.1351,3.1362,3.1225,3.1225,3.1224,3.1224,0,3.1093,3.1126,3.1161,3.1177,3.1193,3.1234,3.1219,3.1238,3.1222,3.1216,3.126,3.1265,3.1286,3.1299,3.1284,3.1351,3.1336,3.131,3.1267,3.134,3.1365,3.1376,3.1231,3.1229,3.1228,3.1227,0,0,3.1226,3.1229,3.1242,3.1247,3.1255,3.1278,3.1316,3.1336,3.135,3.1364,3.1392,3.143,3.1404,3.1415,3.1401,3.1427,3.1494,3.1397,3.1397,3.1411,3.1562,3.1579,3.1592,3.1479,3.1481,3.1482,3.156,0,3.1314,3.1377,3.136,3.1423,3.1449,3.1415,3.1447,3.1454,3.1449,3.147,3.1464,3.1489,3.1456,3.1462,3.1487,3.1481,3.1524,3.1476,3.1501,3.1503,3.1496,3.1605,3.1624,3.1697,3.157,3.1572,3.1573,0,3.1426,3.1441,3.1506,3.1505,3.1515,3.1544,3.1559,3.1581,3.1587,3.1581,3.1592,3.1572,3.1606,3.1564,3.1609,3.1577,3.1587,3.1585,3.1588,3.1586,3.154,3.1603,3.1721,3.173,3.1589,3.1588,3.1587,0,3.151,3.1547,3.1589,3.1595,3.1596,3.1616,3.1618,3.1622,3.1634,3.1647,3.1654,3.1672,3.1681,3.1694,3.1678,3.165,3.1724,3.1682,3.1717,3.1718,3.1732,3.173,3.1849,3.1745,3.1745,3.1745,3.1744,0,3.1608,3.1648,3.1626,3.1651,3.1693,3.1673,3.1715,3.1713,3.1716,3.1739,3.1712,3.1734,3.1713,3.1733,3.1721,3.1757,3.1763,3.1757,3.1753,3.1757,3.1757,3.1761,3.1754,3.1748,3.1747,3.1746,3.1746,0,3.1708,3.1695,3.1738,3.1735,3.1735,3.1766,3.1762,3.1785,3.1777,3.1806,3.1812,3.18,3.1821,3.1807,3.183,3.1821,3.1867,3.1858,3.1865,3.1861,3.1895,3.189,3.2016,3.203,3.1921,3.1923,3.1923,0,3.1769,3.1798,3.1797,3.181,3.1813,3.1835,3.1846,3.1827,3.1839,3.1847,3.1868,3.1887,3.19,3.1936,3.1928,3.1944,3.1933,3.1976,3.1935,3.1937,3.1928,3.1925,3.1925,3.1983,3.1984,3.1985,3.1986,0,3.1878,3.1869,3.1887,3.1901,3.1914,3.1925,3.1933,3.1945,3.1925,3.1941,3.1961,3.1972,3.1993,3.2011,3.2023,3.2024,3.2,3.1999,3.2007,3.201,3.2011,3.2007,3.1883,3.1996,3.1995,3.1994,3.1994,3.1993,3.1958,3.198,3.1981,3.2,3.2004,3.2011,3.2031,3.2025,3.2041,3.2056,3.2044,3.2068,3.207,3.2085,3.2088,3.2105,3.2087,3.21,3.2103,3.2105,3.2108,3.2012,3.2108,3.2108,3.2107,3.2107,3.2107,0,3.2061,3.206,3.2077,3.2088,3.2102,3.2079,3.2086,3.2099,3.212,3.2125,3.2138,3.216,3.2176,3.217,3.2184,3.2199,3.2188,3.2203,3.2199,3.2199,3.2125,3.2115,3.2211,3.2211,3.2211,3.2211,3.2211,3.221,3.2116,3.2151,3.2142,3.2178,3.2176,3.2198,3.2204,3.2209,3.2212,3.2237,3.225,3.2246,3.2245,3.2258,3.2271,3.2269,3.2274,3.2291,3.2285,3.2215,3.2205,3.2195,3.2184,3.2293,3.2294,3.2356,3.2357,3.2357]},{"header":{"parameterUnit":"m.s-1","parameterCategory":1,"la1":30.2991,"la2":30.254,"lo1":-89.0895,"lo2":-89.0444,"dy":0.0017,"dx":0.0017,"nx":28,"ny":28,"refTime":"2025-08-28T09:00:00:Z","depth":0,"parameterNumber":3,"parameterNumberName":"V-component_of_WINDS"},"data":[0,0,0,0,0,0,0,0,0,0,0,0,0,0,0,0,0,0,0,0,0,0,0,0,0,0,0,0,0,0,0,0,0,0,0,0,0,0,0,0,0,0,0,0,0,0,0,0,0,0,0,0,0,0,0,0,0,0,3.8017,3.8019,0,3.8127,3.8128,3.8129,3.8072,3.8069,3.8066,3.8063,3.8171,3.8176,3.8182,0,0,0,0,0,0,0,0,0,0,0,0,0,3.7751,3.7757,3.8017,3.8019,3.802,3.8127,3.8128,3.813,3.8072,3.8069,3.8065,3.8062,3.8169,3.8176,3.8182,0,0,0,0,0,0,0,0,0,0,0,0,0,3.7865,3.7758,3.8017,3.8004,3.8004,3.8126,3.8128,3.813,3.8073,3.8069,3.8064,3.806,3.8167,3.8175,3.8183,3.8323,0,0,3.8209,3.8213,0,0,0,0,0,0,0,0,3.7858,3.7874,3.8005,3.8006,3.8006,3.8081,3.8074,3.8195,3.8074,3.8047,3.8063,3.8058,3.8144,3.8154,3.8184,3.8328,3.8332,3.821,3.8215,3.8218,3.8221,0,0,0,0,0,0,0,3.785,3.7869,3.806,3.8007,3.8007,3.7991,3.8002,3.8096,3.8119,3.8049,3.8045,3.8059,3.8144,3.8176,3.8186,3.8334,3.8209,3.8217,3.8222,3.8225,3.8593,3.8597,0,0,0,0,0,0,3.7844,3.7863,3.8057,3.8064,3.792,3.7999,3.8012,3.8061,3.8118,3.8122,3.8063,3.8056,3.8164,3.8177,3.819,3.8354,3.8218,3.8226,3.8231,3.8588,3.8594,3.8599,0,0,0,0,0,0,3.7839,3.7862,3.8053,3.7962,3.7986,3.8009,3.8065,3.8066,3.8099,3.8128,3.8131,3.8093,3.8161,3.8178,3.8289,3.8357,3.823,3.8238,3.8582,3.859,3.8596,3.8686,0,0,0,0,0,0,3.7831,3.786,3.7916,3.7964,3.7991,3.8153,3.8069,3.8071,3.8114,3.8106,3.8157,3.8161,3.8159,3.8277,3.8298,3.8367,3.8244,3.8576,3.8586,3.8594,3.8677,3.8695,3.8711,0,0,0,0,0,3.7822,3.7936,3.7919,3.7942,3.806,3.8157,3.8172,3.8169,3.812,3.8174,3.8192,3.8159,3.8347,3.8289,3.8312,3.8384,3.8572,3.8583,3.8593,3.867,3.8692,3.8711,0,0,0,0,0,0,3.7895,3.7943,3.7924,3.8058,3.8104,3.8147,3.8216,3.8193,3.8253,3.8243,3.8235,3.8247,3.8362,3.8384,3.8319,3.852,3.8451,3.8467,3.8502,3.8523,3.8539,3.8531,3.8251,0,0,0,0,0,3.7926,3.8003,3.804,3.8154,3.8178,3.8193,3.8235,3.8229,3.8275,3.8294,3.8321,3.8366,3.8434,3.848,3.8545,3.868,3.8688,3.874,3.8757,3.8771,3.8784,3.8854,3.8876,3.8634,3.8634,3.8634,0,0,3.7992,3.8028,3.8077,3.817,3.8205,3.8281,3.821,3.8295,3.8351,3.8307,3.8413,3.8434,3.8483,3.8606,3.8662,3.8628,3.8853,3.8784,3.8795,3.8801,3.8867,3.889,3.891,3.8641,3.864,3.8639,0,0,3.8152,3.8188,3.8286,3.8322,3.8375,3.8384,3.8407,3.8454,3.8466,3.8573,3.854,3.8605,3.8725,3.8761,3.8794,3.8963,3.8934,3.8985,3.9073,3.9141,3.916,3.9176,3.9234,3.9256,3.8998,3.8998,3.8998,0,3.8227,3.8343,3.8338,3.8425,3.8466,3.8429,3.8526,3.8561,3.8633,3.866,3.8622,3.8769,3.88,3.8929,3.897,3.8999,3.9023,3.8979,3.9158,3.9174,3.919,3.9245,3.9267,3.9004,3.9003,3.9002,3.9002,0,3.8431,3.8512,3.8584,3.8655,3.8703,3.8795,3.8801,3.885,3.8838,3.885,3.8957,3.8993,3.9063,3.9093,3.9083,3.922,3.9197,3.9159,3.9089,3.9219,3.927,3.9292,3.9012,3.901,3.9008,3.9007,0,0,3.8641,3.8706,3.8733,3.8763,3.8818,3.8879,3.8967,3.9036,3.9077,3.9127,3.9199,3.9299,3.9263,3.9301,3.9294,3.9354,3.9482,3.9307,3.9308,3.9337,3.9632,3.9659,3.9684,3.9463,3.9467,3.947,3.9627,0,3.8803,3.8959,3.8956,3.91,3.9172,3.9137,3.9213,3.9254,3.9266,3.9327,3.934,3.9411,3.9359,3.9381,3.9439,3.9454,3.954,3.9443,3.9527,3.953,3.9515,3.9712,3.9742,3.9889,3.9647,3.965,3.9653,0,3.9013,3.907,3.9222,3.9263,3.9293,3.9362,3.9423,3.9484,3.9527,3.9531,3.9573,3.9555,3.9641,3.957,3.9687,3.962,3.9654,3.9666,3.9672,3.9679,3.9599,3.9722,3.9936,3.9957,3.9685,3.9683,3.968,0,3.9149,3.9263,3.9368,3.9395,3.9446,3.9495,3.9518,3.9557,3.9598,3.9651,3.9676,3.9738,3.9772,3.9819,3.9817,3.9766,3.9934,3.9864,3.9938,3.9938,3.9975,3.9973,4.0195,3.9999,3.9999,3.9999,3.9998,0,3.9329,3.9423,3.9429,3.9493,3.9595,3.9589,3.9689,3.9708,3.9742,3.9807,3.978,3.9841,3.9835,3.9896,3.9895,3.999,4.0006,4.001,4.0008,4.0012,4.0011,4.0034,4.0023,4.0004,4.0003,4.0002,4.0001,0,3.9498,3.9506,3.9618,3.9656,3.9668,3.9742,3.9774,3.9833,3.9842,3.9924,3.9943,3.9956,4.0026,4.0029,4.0109,4.0108,4.0223,4.0211,4.0209,4.0206,4.028,4.0273,4.0524,4.0556,4.034,4.0342,4.0344,0,3.9613,3.9684,3.9729,3.9771,3.9798,3.9866,3.9907,3.9902,3.9945,3.9998,4.0051,4.0118,4.0172,4.0284,4.0299,4.036,4.0347,4.0431,4.0356,4.0357,4.0346,4.0342,4.0348,4.0446,4.0448,4.045,4.0452,0,3.9814,3.9813,3.9875,3.9937,3.9986,4.0035,4.0079,4.0115,4.0114,4.0164,4.0235,4.0277,4.0358,4.0424,4.0482,4.0502,4.0477,4.0475,4.0495,4.0499,4.0495,4.0496,4.0248,4.0469,4.0468,4.0466,4.0465,4.0465,3.9958,4.0018,4.0059,4.0127,4.016,4.0201,4.0258,4.0274,4.0334,4.04,4.0393,4.0471,4.0509,4.0584,4.061,4.0669,4.064,4.067,4.0677,4.0684,4.0691,4.0486,4.068,4.0679,4.0679,4.0678,4.0678,0,4.0156,4.018,4.0243,4.0306,4.0358,4.033,4.0377,4.0422,4.0492,4.053,4.0583,4.0663,4.0726,4.0745,4.0806,4.0849,4.0838,4.0865,4.0861,4.0866,4.0715,4.0691,4.0873,4.0873,4.0872,4.0872,4.0872,4.0872,4.0265,4.0365,4.0369,4.0483,4.0505,4.0583,4.0612,4.0649,4.0679,4.077,4.0822,4.0835,4.0865,4.0926,4.0982,4.0985,4.1008,4.104,4.1038,4.0897,4.0877,4.0858,4.0835,4.1045,4.1045,4.1184,4.1186,4.1186]}]]